Location: Koussan�
(15.2012°N, 12.5548°W)
Time: 02:15:21
(UTC+00:00)

Cosmos 1140 Rocket - Pass Details

Date: 20 October 2020
Orbit: 744 x 767 km, 74.1° (Epoch: 25 November)

Event Time Altitude Azimuth Distance (km) Brightness Sun altitude
Rises 19:01:58 0° 338° (NNW) 3,191 6.9 -9.2°
Reaches altitude 10° 19:04:22 10° 334° (NNW) 2,269 6.2 -9.8°
Maximum altitude 19:09:20 52° 259° (WSW) 936 4.4 -11.0°
Drops below altitude 10° 19:14:21 10° 183° (S) 2,282 6.1 -12.2°
Sets 19:16:47 0° 178° (S) 3,209 6.8 -12.8°
